JCSAT-18 (KACIFIC 1) (44868 NORAD) Tracking and Keplerian Element Data

This shows tracking and keplerian element data for the satellite.

Feedback or suggestion? Click here.




ElementValue
Catalog44868
NameJCSAT-18 (KACIFIC 1)
Epoch Orbit136
Epoch Day93.68452101
Epoch Year2020
RAAN102.2519
Inclination0.012
Eccentricity8.12E-05
Argument of Perigee253.1684
Mean Anonmoly232.4669
Mean Motion1.00271963
Decay Rate-2.09E-06
L11 44868U 19091A 20093.68452101 -.00000209 00000-0 00000+0 0 9992
L22 44868 0.0120 102.2519 0000812 253.1684 232.4669 1.00271963 1366

Live tracking and technical data element details for JCSAT-18 (KACIFIC 1) (NORAD 44868). JCSAT-18 (KACIFIC 1) can be tracked NOW for your location showing map with azimuth and elevation plus other details from your city location.

Track the satellite on the map from your city or location and see movement details for azimuth, elevation, latitude, longitude, range, height, and movement on the map or in text.







IsCatalogInMostPopularTable: catalog: 44868, numindb: 146
Update: records affected: 1



GetName: 44868 JCSAT-18 (KACIFIC 1)

Hit Count: updated at: Fri, 10 Apr 2020 18:56:24 GMT